• Em Portugal
  • Lista de países
  • Para 7 dias
  • Temperatura da água
  • Mapas de satélite
  • Mapa do tempo
  • Widgets de tempo
  • user-avatar
    Iniciar Sessão

    Previsão horária em Haskovo

    Hoje, 24 Setembro, Segunda-feira

    Tempo Temperatura Precipitação Vento Pressão Humidade
    00:00 +23°C° 0 mm 2 m/s 743 mmHg 58%
    01:00 +21°C° 0 mm 2 m/s 743 mmHg 61%
    02:00 +22°C° 0 mm 1 m/s 742 mmHg 63%
    03:00 +21°C° 0 mm 1 m/s 742 mmHg 64%
    04:00 +21°C° 0 mm 1 m/s 741 mmHg 64%
    05:00 +21°C° 0 mm 1 m/s 741 mmHg 65%
    06:00 +22°C° 0 mm 1 m/s 741 mmHg 61%
    07:00 +23°C° 0 mm 1 m/s 740 mmHg 57%
    08:00 +24°C° 0 mm 1 m/s 740 mmHg 51%
    09:00 +26°C° 0 mm 2 m/s 740 mmHg 44%
    10:00 +29°C° 0 mm 2 m/s 740 mmHg 38%
    11:00 +31°C° 0 mm 3 m/s 739 mmHg 32%
    12:00 +33°C° 0 mm 3 m/s 739 mmHg 29%
    13:00 +34°C° 0 mm 3 m/s 739 mmHg 27%
    14:00 +35°C° 0 mm 4 m/s 738 mmHg 25%
    15:00 +34°C° 0 mm 4 m/s 738 mmHg 27%
    16:00 +34°C° 0 mm 4 m/s 738 mmHg 28%
    17:00 +33°C° 0 mm 5 m/s 738 mmHg 30%
    18:00 +29°C° 0 mm 5 m/s 739 mmHg 36%
    19:00 +26°C° 0 mm 6 m/s 740 mmHg 42%
    20:00 +22°C° 0 mm 6 m/s 741 mmHg 48%
    21:00 +21°C° 0 mm 6 m/s 742 mmHg 48%
    22:00 +20°C° 0 mm 6 m/s 743 mmHg 49%
    23:00 +17°C° 0 mm 6 m/s 743 mmHg 49%

    Amanhã, 25 Setembro, Terça-feira

    Tempo Temperatura Precipitação Vento Pressão Humidade
    00:00 +17°C° 0 mm 6 m/s 744 mmHg 49%
    01:00 +16°C° 0 mm 6 m/s 744 mmHg 48%
    02:00 +15°C° 0 mm 6 m/s 745 mmHg 48%
    03:00 +15°C° 0 mm 5 m/s 745 mmHg 47%
    04:00 +14°C° 0 mm 5 m/s 746 mmHg 47%
    05:00 +14°C° 0 mm 5 m/s 746 mmHg 46%
    06:00 +14°C° 0 mm 5 m/s 747 mmHg 45%
    07:00 +13°C° 0 mm 5 m/s 747 mmHg 44%
    08:00 +13°C° 0 mm 5 m/s 748 mmHg 42%
    09:00 +15°C° 0 mm 5 m/s 748 mmHg 37%
    10:00 +16°C° 0 mm 5 m/s 748 mmHg 32%
    11:00 +17°C° 0 mm 5 m/s 748 mmHg 27%
    12:00 +19°C° 0 mm 5 m/s 748 mmHg 25%
    13:00 +20°C° 0 mm 5 m/s 748 mmHg 23%
    14:00 +21°C° 0 mm 6 m/s 748 mmHg 20%
    15:00 +20°C° 0 mm 6 m/s 748 mmHg 21%
    16:00 +19°C° 0 mm 6 m/s 748 mmHg 22%
    17:00 +19°C° 0 mm 6 m/s 748 mmHg 22%
    18:00 +16°C° 0 mm 5 m/s 748 mmHg 25%
    19:00 +15°C° 0 mm 4 m/s 749 mmHg 29%
    20:00 +13°C° 0 mm 4 m/s 750 mmHg 32%
    21:00 +12°C° 0 mm 3 m/s 750 mmHg 36%
    22:00 +12°C° 0 mm 3 m/s 751 mmHg 40%
    23:00 +11°C° 0 mm 3 m/s 751 mmHg 45%

    Depois de amanhã, 26 Setembro, Quarta-feira

    Tempo Temperatura Precipitação Vento Pressão Humidade
    00:00 +10°C° 0 mm 3 m/s 751 mmHg 45%
    01:00 +10°C° 0 mm 3 m/s 751 mmHg 45%
    02:00 +10°C° 0 mm 3 m/s 752 mmHg 45%
    03:00 +9°C° 0 mm 3 m/s 752 mmHg 46%
    04:00 +9°C° 0 mm 3 m/s 752 mmHg 47%
    05:00 +8°C° 0 mm 3 m/s 752 mmHg 48%
    06:00 +8°C° 0 mm 4 m/s 752 mmHg 46%
    07:00 +10°C° 0 mm 4 m/s 752 mmHg 45%
    08:00 +10°C° 0 mm 5 m/s 753 mmHg 43%
    09:00 +12°C° 0 mm 5 m/s 753 mmHg 39%
    10:00 +13°C° 0 mm 6 m/s 753 mmHg 36%
    11:00 +15°C° 0 mm 7 m/s 753 mmHg 32%
    12:00 +15°C° 0 mm 7 m/s 753 mmHg 31%
    13:00 +16°C° 0 mm 7 m/s 752 mmHg 29%
    14:00 +17°C° 0 mm 8 m/s 752 mmHg 28%
    15:00 +16°C° 0 mm 7 m/s 752 mmHg 29%
    16:00 +15°C° 0 mm 7 m/s 752 mmHg 30%
    17:00 +15°C° 0 mm 7 m/s 751 mmHg 31%
    18:00 +14°C° 0 mm 6 m/s 752 mmHg 35%
    19:00 +11°C° 0 mm 6 m/s 752 mmHg 38%
    20:00 +10°C° 0 mm 5 m/s 753 mmHg 41%
    21:00 +9°C° 0 mm 5 m/s 753 mmHg 43%
    22:00 +10°C° 0 mm 4 m/s 753 mmHg 45%
    23:00 +8°C° 0 mm 4 m/s 753 mmHg 46%

    27 Setembro, Quinta-feira

    Tempo Temperatura Precipitação Vento Pressão Humidade
    00:00 +7°C° 0 mm 4 m/s 753 mmHg 48%
    01:00 +7°C° 0 mm 4 m/s 753 mmHg 49%
    02:00 +7°C° 0 mm 4 m/s 752 mmHg 51%
    03:00 +6°C° 0 mm 4 m/s 752 mmHg 52%
    04:00 +6°C° 0 mm 4 m/s 752 mmHg 53%
    05:00 +6°C° 0 mm 4 m/s 751 mmHg 54%
    06:00 +7°C° 0 mm 5 m/s 751 mmHg 50%
    07:00 +8°C° 0 mm 5 m/s 751 mmHg 46%
    08:00 +9°C° 0 mm 6 m/s 751 mmHg 43%
    09:00 +10°C° 0 mm 6 m/s 751 mmHg 38%
    10:00 +12°C° 0 mm 7 m/s 751 mmHg 33%
    11:00 +15°C° 0 mm 7 m/s 750 mmHg 29%
    12:00 +16°C° 0 mm 7 m/s 750 mmHg 27%
    13:00 +17°C° 0 mm 7 m/s 749 mmHg 25%
    14:00 +18°C° 0 mm 7 m/s 749 mmHg 23%
    15:00 +17°C° 0 mm 7 m/s 748 mmHg 24%
    16:00 +17°C° 0 mm 7 m/s 748 mmHg 25%
    17:00 +17°C° 0 mm 7 m/s 747 mmHg 27%
    18:00 +15°C° 0 mm 6 m/s 748 mmHg 31%
    19:00 +13°C° 0 mm 5 m/s 748 mmHg 35%
    20:00 +12°C° 0 mm 4 m/s 748 mmHg 39%
    21:00 +11°C° 0 mm 4 m/s 748 mmHg 41%
    22:00 +10°C° 0 mm 4 m/s 747 mmHg 43%
    23:00 +10°C° 0 mm 3 m/s 747 mmHg 45%

    28 Setembro, Sexta-feira

    Tempo Temperatura Precipitação Vento Pressão Humidade
    00:00 +9°C° 0 mm 3 m/s 747 mmHg 44%
    01:00 +9°C° 0 mm 3 m/s 746 mmHg 44%
    02:00 +8°C° 0 mm 4 m/s 746 mmHg 43%
    03:00 +9°C° 0 mm 3 m/s 746 mmHg 42%
    04:00 +9°C° 0 mm 3 m/s 746 mmHg 41%
    05:00 +9°C° 0 mm 3 m/s 746 mmHg 40%
    06:00 +10°C° 0 mm 3 m/s 745 mmHg 38%
    07:00 +11°C° 0 mm 4 m/s 745 mmHg 36%
    08:00 +12°C° 0 mm 4 m/s 745 mmHg 34%
    09:00 +14°C° 0 mm 4 m/s 745 mmHg 34%
    10:00 +17°C° 0 mm 4 m/s 745 mmHg 34%
    11:00 +19°C° 0 mm 4 m/s 745 mmHg 33%
    12:00 +20°C° 0 mm 4 m/s 744 mmHg 32%
    13:00 +21°C° 0 mm 4 m/s 744 mmHg 31%
    14:00 +22°C° 0 mm 4 m/s 743 mmHg 30%
    15:00 +22°C° 0 mm 4 m/s 743 mmHg 31%
    16:00 +22°C° 0 mm 4 m/s 743 mmHg 33%
    17:00 +21°C° 0 mm 4 m/s 742 mmHg 35%
    18:00 +20°C° 0 mm 3 m/s 743 mmHg 41%
    19:00 +18°C° 0 mm 3 m/s 743 mmHg 48%
    20:00 +16°C° 0 mm 2 m/s 743 mmHg 54%
    21:00 +15°C° 0 mm 2 m/s 743 mmHg 59%
    22:00 +15°C° 0 mm 2 m/s 742 mmHg 63%
    23:00 +14°C° 0 mm 1 m/s 742 mmHg 67%

    29 Setembro, Sábado

    Tempo Temperatura Precipitação Vento Pressão Humidade
    00:00 +14°C° 0 mm 1 m/s 742 mmHg 68%
    01:00 +14°C° 0 mm 1 m/s 742 mmHg 69%
    02:00 +14°C° 0 mm 2 m/s 742 mmHg 70%
    03:00 +13°C° 0 mm 2 m/s 742 mmHg 70%
    04:00 +13°C° 0 mm 2 m/s 741 mmHg 70%
    05:00 +13°C° 0 mm 2 m/s 741 mmHg 70%
    06:00 +14°C° 0 mm 1 m/s 741 mmHg 67%
    07:00 +14°C° 0 mm 1 m/s 741 mmHg 63%
    08:00 +15°C° 0 mm 1 m/s 741 mmHg 60%
    09:00 +18°C° 0 mm 1 m/s 741 mmHg 55%
    10:00 +18°C° 0 mm 2 m/s 741 mmHg 51%
    11:00 +20°C° 0 mm 2 m/s 741 mmHg 46%
    12:00 +20°C° 0 mm 2 m/s 741 mmHg 44%
    13:00 +21°C° 0 mm 2 m/s 741 mmHg 42%
    14:00 +23°C° 0 mm 2 m/s 741 mmHg 40%
    15:00 +21°C° 0 mm 2 m/s 741 mmHg 41%
    16:00 +21°C° 0 mm 2 m/s 741 mmHg 43%
    17:00 +20°C° 0 mm 2 m/s 741 mmHg 44%
    18:00 +19°C° 0 mm 2 m/s 741 mmHg 48%
    19:00 +19°C° 0 mm 1 m/s 741 mmHg 52%
    20:00 +16°C° 0 mm 1 m/s 742 mmHg 57%
    21:00 +16°C° 0 mm 1 m/s 742 mmHg 57%
    22:00 +16°C° 0 mm 1 m/s 742 mmHg 58%
    23:00 +15°C° 0 mm 2 m/s 742 mmHg 59%
    Mostrar mais